Regional Weather Roundup
Issued by NWS

Home | Current Version | Previous Version | Graphics & Text | Print | Product List | Glossary On
Versions: 1 2 3 4 5 6 7 8 9 10 11 12 13 14 15 16 17 18 19 20 21 22 23 24 25 26 27 28 29 30 31 32 33 34 35 36 37 38 39 40 41 42 43 44 45 46 47 48 49 50
000
ASUS43 KMKX 281321
RWRWI

WISCONSIN REGIONAL WEATHER ROUNDUP
NATIONAL WEATHER SERVICE MILWAUKEE/SULLIVAN WI
800 AM CDT FRI APR 28 2017

NOTE: "FAIR" INDICATES FEW OR NO CLOUDS BELOW 12,000 FEET WITH NO
SIGNIFICANT WEATHER AND/OR OBSTRUCTIONS TO VISIBILITY.

WIZ001-002-006>008-014>016-023>028-281400-
NORTHWEST WISCONSIN

CITY           SKY/WX    TMP DP  RH WIND       PRES   REMARKS
SUPERIOR ARPT  CLOUDY    33  24  69 W10       29.84R WCI  25
ASHLAND        CLOUDY    31  24  75 W13       29.82R WCI  21
HAYWARD        CLOUDY    32  22  66 VRB7      29.83R WCI  26
SIREN          PTSUNNY   33  24  68 NW9       29.86R WCI  25
CUMBERLAND     CLOUDY    32  23  69 NW13      29.85R WCI  22
RICE LAKE      CLOUDY    33  26  75 W9        29.86R WCI  25
CHETEK         CLOUDY    33  25  73 W10       29.86R WCI  25
LADYSMITH      CLOUDY    33  26  75 W8        29.85R WCI  26
EAU CLAIRE     CLOUDY    36  29  75 W7        29.86R WCI  30
MENOMONIE      CLOUDY    37  28  71 NW9       29.87R WCI  30
NEW RICHMOND   SUNNY     35  23  61 NW10      29.88R WCI  27
OSCEOLA        SUNNY     34  24  67 W12       29.92R WCI  25
$$

WIZ003>005-009-010-017-018-281400-
NORTH CENTRAL WISCONSIN

CITY           SKY/WX    TMP DP  RH WIND       PRES   REMARKS
MANITOWISH WTR CLOUDY    28  24  84 W10G17    29.76R WCI  19
ARBOR VITAE    CLOUDY    32  25  74 W10G18    29.77R WCI  23
WOODRUFF       CLOUDY    32  25  74 W10G18    29.77R WCI  23
RHINELANDER    MIX PCPN  31  25  78 W12       29.79R WCI  22
EAGLE RIVER    CLOUDY    29  21  72 W12G20    29.76R WCI  19
LAND O LAKES   CLOUDY    29  22  74 W13G21    29.77R WCI  19
PHILLIPS       CLOUDY    30  26  85 W6        29.79S WCI  24
TOMAHAWK       CLOUDY    31  24  75 W8        29.81R WCI  23
MEDFORD        MOSUNNY   32  24  74 W14       29.81S WCI  22
MERRILL        CLOUDY    32  26  79 W10       29.82R WCI  24
$$

WIZ029-030-035-036-043>047-281400-
CENTRAL WISCONSIN

CITY           SKY/WX    TMP DP  RH WIND       PRES   REMARKS
WAUSAU         CLOUDY    33  25  72 W9        29.82R WCI  25
MOSINEE        MOSUNNY   34  27  75 W12G18    29.85R WCI  25
MARSHFIELD     CLOUDY    35  24  64 W13       29.84R WCI  26
STEVENS POINT  CLOUDY    34  24  66 W12G21    29.86R WCI  25
WAUPACA        CLOUDY    38  26  62 W10G16    29.88R WCI  31
WAUTOMA        PTSUNNY   37  27  65 W12       29.89R WCI  30
WISC RAPIDS    CLOUDY    36  27  69 NW12G18   29.87R WCI  28
CAMP DOUGLAS   MOSUNNY   37  28  70 W8        29.89R WCI  31
$$

WIZ011>013-019>022-031-037>040-048>050-281400-
NORTHEAST WISCONSIN

CITY           SKY/WX    TMP DP  RH WIND       PRES   REMARKS
ANTIGO         CLOUDY    30  26  85 W10       29.81R WCI  21
SHAWANO        CLOUDY    37  26  65 W10       29.86R WCI  30
OCONTO         CLOUDY    35  26  68 SW7       29.86R WCI  29
STURGEON BAY   CLOUDY    36  25  64 W13       29.87R WCI  27
GREEN BAY      CLOUDY    37  30  75 W13       29.87R WCI  29
MANITOWOC      CLOUDY    38  31  76 W7        29.90R WCI  33
APPLETON       CLOUDY    36  25  64 W14       29.86R WCI  27
CLINTONVILLE   CLOUDY    36  27  69 W7        29.86R WCI  30
OSHKOSH        CLOUDY    37  28  70 W9        29.89R WCI  30
$$

WIZ032>034-041-042-053>061-281400-
SOUTHWEST WISCONSIN

CITY           SKY/WX    TMP DP  RH WIND       PRES   REMARKS
LA CROSSE      SUNNY     39  29  67 CALM      29.89R
SPARTA         SUNNY     36  29  76 SW3       29.90R
VIROQUA        SUNNY     34  30  85 SW5       29.89R WCI  30
BOSCOBEL       SUNNY     38  29  70 CALM      29.92R
PRAIRIE DU CHI SUNNY     36  28  72 CALM      29.92R
PLATTEVILLE    MOSUNNY   35  32  89 NE3       29.92R
$$

WIZ056-057-062-063-064-067-068-281400-
SOUTH CENTRAL WISCONSIN

CITY           SKY/WX    TMP DP  RH WIND       PRES   REMARKS
REEDSBURG      SUNNY     35  28  76 SW3       29.89
BARABOO/DELLS  SUNNY     36  28  72 W6        29.90R WCI  31
LONE ROCK      SUNNY     38  28  67 NW3       29.92R
MINERAL POINT  SUNNY     36  32  87 NW3       29.90R
MADISON        PTSUNNY   37  30  75 CALM      29.91R
MIDDLETON      SUNNY     37  31  78 CALM      29.91R
WATERTOWN      MOSUNNY   37  32  82 SW3       29.91R
MONROE         SUNNY     36  30  80 NW7       29.91R WCI  30
JANESVILLE     MOSUNNY   39  32  75 NW7       29.91R WCI  34
$$

WIZ051-052-058>065-066-070>072-281400-
SOUTHEAST WISCONSIN

CITY           SKY/WX    TMP DP  RH WIND       PRES   REMARKS
MILWAUKEE      MOSUNNY   42  32  67 W7        29.92R
WAUKESHA       MOSUNNY   37  32  81 SW3       29.93R
MILWAUKEE/TIMM SUNNY     39  30  70 W7        29.93R WCI  34
RACINE         SUNNY     41  31  67 W5        29.95R
KENOSHA        MOSUNNY   42  33  70 W6        29.94R
FOND DU LAC    CLOUDY    37  28  70 W6        29.90R WCI  32
SHEBOYGAN      CLOUDY    38  32  79 W10       29.90R WCI  31
WEST BEND      CLOUDY    36  32  87 W7        29.91R WCI  30
JUNEAU         CLOUDY    36  29  77 SW3       29.92R
$$

LSZ147-162-281400-
LAKE SUPERIOR

STATION/POSITION TIME  TEMP    WIND        PRES    WAVE
                       AIR SEA DIR/SP/G            HT/PER
                 (UTC) (F)     (DEG/KT/KT) (MB)    (FT/S)
DEVILS ISLAND    1200   32     270/ 23/ 26 1008.5R
PORT WING        1240   33     280/ 17/ 23 1009.8R
SAXON HARBOR     1230   31     230/  6/ 13 1009.1R
$$

LMZ867-665-643>646-281400-
LAKE MICHIGAN

STATION/POSITION TIME  TEMP    WIND        PRES    WAVE
                       AIR SEA DIR/SP/G            HT/PER
                 (UTC) (F)     (DEG/KT/KT) (MB)    (FT/S)
CHAMBERS ISLAND  1240   35     230/  6/ 14 1010.5R
N MID LAKE BUOY  1250   34 37  260/ 16/ 17 1012.0R   3/ 4
NORTHPORT PIER   1240   35     260/  5/ 11 1010.8R
SISTER BAY       1221   36     290/ 18/ 22   N/A
KEWAUNEE LAKESHO 1254   36     270/  8/ 12 1011.5R
SHEBOYGAN LAKESH 1300   38     280/  9/ 11 1013.0R
PORT WASHINGTON  1240   40     280/  3/ 10 1013.9R
MILWAUKEE LAKESH 1300   40     280/  6/  7   N/A
S MID LAKE BUOY  1150   41 41  310/  6/  6 1013.5R   2/ 4
KENOSHA   LAKESH 1200   40     260/  3/  6 1013.2
$$

TC  - TEMPERATURE IN CELSIUS
VSB - VISIBILITY IN STATUTE MILES
WCI - WIND CHILL INDEX
HX  - HEAT INDEX





USA.gov is the U.S. government's official web portal to all federal, state and local government web resources and services.